This demonstration page uses our WeatherBlox Daily Observations layout. Learn more.

Left ArrowRight Arrow

38.88101, -77.10428

Hourly Observations for May 22, 2016

Temp ( °F °C ) Dew Point ( °F °C ) Humidity (%) Winds ( mph kmh ) Pressure ( in mb ) Visibility ( mi km ) Precip ( " mm )
12:05 am 00:05 Cloudy with Light Rain 55 12.8 53 11.7 93 93 NNW 9 15 29.88 1012 4 6 N/A
12:27 am 00:27 Cloudy with Light Rain 55 12.8 53 11.7 93 93 NNW 8 13 29.88 1012 4 6 0.02 0.51
12:52 am 00:52 Cloudy with Light Rain 55 12.8 54 12.2 96 96 NNW 8 13 29.88 1012 4 6 0.02 0.51
1:33 am 01:33 Cloudy with Drizzle 55 12.8 54 12.2 96 96 NNW 8 13 29.88 1012 7 11 0.01 0.25
1:42 am 01:42 Cloudy with Drizzle 55 13 54 12 94 94 N 8 13 29.88 1012 7 11 N/A
1:52 am 01:52 Cloudy with Drizzle 55 12.8 54 12.2 96 96 N 10 17 29.86 1011 7 11 0.01 0.25
2:04 am 02:04 Cloudy with Drizzle 55 13 54 12 94 94 N 9 15 29.85 1011 9 14 N/A
2:06 am 02:06 Cloudy with Drizzle 55 12.8 53 11.7 93 93 N 8 13 29.85 1011 9 14 N/A
2:15 am 02:15 Cloudy with Drizzle 55 12.8 53 11.7 93 93 N 8 13 29.85 1011 10 16 N/A
2:52 am 02:52 Cloudy 55 12.8 54 12.2 96 96 N 9 15 29.85 1011 10 16 N/A
3:01 am 03:01 Cloudy 55 12.8 53 11.7 93 93 NNW 9 15 29.85 1011 10 16 N/A
3:52 am 03:52 Cloudy with Drizzle 55 12.8 53 11.7 93 93 NNW 8 13 29.85 1011 5 8 N/A
3:59 am 03:59 Cloudy with Drizzle 55 12.8 53 11.7 93 93 NNW 8 13 29.85 1011 5 8 N/A
4:22 am 04:22 Cloudy with Drizzle 55 13 54 12 94 94 N 7 11 29.85 1011 6 10 N/A
4:44 am 04:44 Cloudy with Drizzle 55 13 54 12 94 94 N 8 13 29.85 1011 4 6 N/A
4:52 am 04:52 Cloudy with Drizzle 55 12.8 53 11.7 93 93 N 8 13 29.84 1011 5 8 N/A
4:59 am 04:59 Cloudy with Drizzle 55 12.8 53 11.7 93 93 N 9 15 29.85 1011 6 10 N/A
5:13 am 05:13 Cloudy with Drizzle 54 12.2 53 11.7 97 97 NNW 10 17 29.85 1011 6 10 N/A
5:24 am 05:24 Cloudy with Drizzle 54 12 52 11 94 94 NNW 10 17 29.85 1011 8 13 N/A
5:52 am 05:52 Cloudy with Drizzle 54 12.2 52 11.1 93 93 N 12 19 29.85 1011 10 16 N/A
6:13 am 06:13 Cloudy with Drizzle 55 12.8 52 11.1 90 90 NNW 13 20 29.85 1011 10 16 N/A
6:24 am 06:24 Cloudy 54 12 52 11 94 94 N 10 17 29.85 1011 10 16 N/A
6:39 am 06:39 Cloudy 55 12.8 52 11.1 90 90 NNW 12 19 29.85 1011 10 16 N/A
6:52 am 06:52 Cloudy 55 12.8 52 11.1 90 90 NNW 12 19 29.86 1011 10 16 N/A
7:05 am 07:05 Cloudy 55 12.8 52 11.1 90 90 N 10 17 29.88 1012 10 16 N/A
7:47 am 07:47 Cloudy with Drizzle 55 13 52 11 88 88 N 12 19 29.88 1012 4 6 N/A
7:52 am 07:52 Cloudy with Drizzle 55 12.8 53 11.7 93 93 N 9 15 29.88 1012 4 6 N/A
7:59 am 07:59 Cloudy with Drizzle 54 12.2 52 11.1 93 93 N 9 15 29.88 1012 3 4 N/A
8:30 am 08:30 Cloudy with Light Rain 55 13 54 12 94 94 N 9 15 29.88 1012 2 3 N/A
8:47 am 08:47 Cloudy with Light Rain 55 13 54 12 94 94 NNE 12 19 29.88 1012 2 3 0.01 0.25
8:52 am 08:52 Cloudy with Light Rain 55 12.8 53 11.7 93 93 NNE 10 17 29.89 1012 2 3 0.01 0.25
9:25 am 09:25 Cloudy with Light Rain 54 12.2 52 11.1 93 93 N 13 20 29.88 1012 2 3 0.01 0.25
9:43 am 09:43 Cloudy with Light Rain 54 12.2 52 11.1 93 93 N 12 19 29.91 1013 4 6 0.01 0.25
9:52 am 09:52 Cloudy with Drizzle 54 12.2 52 11.1 93 93 N 10 17 29.89 1012 5 8 0.01 0.25
10:17 am 10:17 Cloudy with Drizzle 55 12.8 52 11.1 90 90 N 12 19 29.88 1012 10 16 N/A
10:52 am 10:52 Cloudy with Drizzle 55 12.8 53 11.7 93 93 NNE 10 17 29.88 1012 6 10 N/A
11:52 am 11:52 Cloudy with Drizzle 56 13.3 53 11.7 90 90 NE 10 17 29.89 1012 4 6 N/A
12:00 pm 12:00 Cloudy with Drizzle 55 13 54 12 94 94 N 9 15 29.91 1013 3 4 N/A
12:34 pm 12:34 Cloudy with Light Rain 55 13 54 12 94 94 NNE 10 17 29.88 1012 2 3 N/A
12:41 pm 12:41 Cloudy with Light Rain 56 13.3 53 11.7 90 90 NNE 10 17 29.88 1012 2 3 0.04 1.02
12:52 pm 12:52 Cloudy with Light Rain 56 13.3 53 11.7 90 90 NNE 9 15 29.89 1012 2 3 0.06 1.52
12:55 pm 12:55 Cloudy with Light Rain 56 13.3 53 11.7 90 90 NNE 8 13 29.88 1012 2 3 N/A
1:19 pm 13:19 Cloudy with Light Rain 56 13.3 54 12.2 93 93 N 7 11 29.88 1012 4 6 0.01 0.25
1:52 pm 13:52 Cloudy with Light Rain 56 13.3 54 12.2 93 93 N 12 19 29.89 1012 3 5 0.03 0.76
2:00 pm 14:00 Cloudy with Light Rain 55 13 54 12 94 94 N 10 17 29.88 1012 3 4 N/A
2:12 pm 14:12 Cloudy with Light Rain 55 13 52 11 88 88 N 12 19 29.88 1012 5 8 N/A
2:52 pm 14:52 Cloudy with Light Rain 57 13.9 53 11.7 87 87 NNW 14 22 29.88 1012 10 16 N/A
3:20 pm 15:20 Cloudy with Light Rain 57 14 54 12 88 88 NW 15 24 29.88 1012 10 16 N/A
3:33 pm 15:33 Cloudy with Light Rain 57 13.9 52 11.1 83 83 NW 12 19 29.88 1012 10 16 N/A
3:52 pm 15:52 Cloudy with Light Rain 57 13.9 53 11.7 87 87 W 7 11 29.88 1012 7 11 0.02 0.51
4:52 pm 16:52 Cloudy with Light Rain 58 14.4 54 12.2 87 87 NNW 14 22 29.87 1012 9 14 0.01 0.25
4:58 pm 16:58 Cloudy with Light Rain 57 14 54 12 88 88 NW 13 20 29.88 1012 6 10 N/A
5:35 pm 17:35 Cloudy with Light Rain 58 14.4 54 12.2 87 87 NW 12 19 29.88 1012 6 10 0.03 0.76
5:52 pm 17:52 Cloudy with Light Rain 57 13.9 54 12.2 90 90 NNW 8 13 29.87 1012 9 14 0.05 1.27
6:46 pm 18:46 Cloudy with Light Rain 57 14 54 12 88 88 NNW 7 11 29.88 1012 4 6 N/A
6:52 pm 18:52 Cloudy with Light Rain 57 13.9 54 12.2 90 90 NW 9 15 29.87 1012 4 6 0.04 1.02
7:06 pm 19:06 Cloudy with Light Rain 57 14 54 12 88 88 NW 8 13 29.88 1012 4 6 N/A
7:52 pm 19:52 Cloudy with Light Rain 57 13.9 55 12.8 93 93 NW 9 15 29.88 1012 7 11 0.05 1.27
8:52 pm 20:52 Cloudy 57 13.9 55 12.8 93 93 NNW 8 13 29.89 1012 10 16 0.02 0.51
8:58 pm 20:58 Cloudy with Light Rain 57 14 55 13 94 94 NNW 8 13 29.88 1012 10 16 N/A
9:34 pm 21:34 Cloudy with Light Rain 57 14 55 13 94 94 N 7 11 29.91 1013 7 11 N/A
9:52 pm 21:52 Cloudy with Light Rain 57 13.9 55 12.8 93 93 NNW 7 11 29.90 1012 6 10 0.04 1.02
10:09 pm 22:09 Cloudy 57 13.9 55 12.8 93 93 NE 10 17 29.91 1013 9 14 N/A
10:20 pm 22:20 Cloudy with Drizzle 57 14 55 13 94 94 NE 9 15 29.91 1013 4 6 N/A
10:23 pm 22:23 Cloudy with Light Rain 58 14.4 56 13.3 93 93 NE 9 15 29.91 1013 3 5 N/A
10:32 pm 22:32 Cloudy with Light Rain 57 14 55 13 94 94 ENE 8 13 29.91 1013 3 4 N/A
10:35 pm 22:35 Cloudy with Light Rain 57 13.9 55 12.8 93 93 ENE 8 13 29.91 1013 3 5 0.01 0.25
10:45 pm 22:45 Cloudy with Light Rain 57 13.9 55 12.8 93 93 NE 9 15 29.91 1013 4 6 0.02 0.51
10:52 pm 22:52 Cloudy with Drizzle 57 13.9 55 12.8 93 93 NE 9 15 29.91 1013 4 6 0.02 0.51
11:01 pm 23:01 Cloudy with Drizzle 57 13.9 55 12.8 93 93 NNE 7 11 29.91 1013 4 6 N/A
11:08 pm 23:08 Cloudy with Drizzle 57 14 55 13 94 94 NNE 10 17 29.91 1013 5 8 N/A
11:20 pm 23:20 Cloudy with Drizzle 57 14 55 13 94 94 NNE 9 15 29.91 1013 8 13 N/A
11:27 pm 23:27 Cloudy with Drizzle 57 13.9 55 12.8 93 93 NE 7 11 29.91 1013 10 16 N/A
11:52 pm 23:52 Cloudy 57 13.9 55 12.8 93 93 NNE 6 9 29.91 1013 10 16 N/A

Powered by AerisWeather